www.pogodaiklimat.ru

Погода и климат >> Архив погоды >> Канада >> Stefansson Island


ПОГОДА в Stefansson Island

  • Прогноз погоды в Stefansson Island
  • Монитор погоды в Stefansson Island
  • Климат города

АРХИВ ПОГОДЫ в Stefansson Island

Время (UTC), дата Ветер
(напр.,м/с)
 
Видим.   Явления Облачность Т
(С)
Тd
(С)
f
(%)
Тe
(С)
Тes
(С)
Комфортность P
(гПа)
Po
(гПа)
Тmin
(С)
Tmax
(С)
R
(мм)
R24
(мм)
S
(см)
18 20.06 СЗ 3 н/о н/о -0.5 -3.8 78 -5 -5 1017.1 1015.7
21 20.06 СЗ 3 н/о н/о +1.2 -2.4 77 -3 -3 1017.1 1015.7
00 21.06 СЗ 3 н/о н/о +2.0 -1.5 78 -2 -2 1017.2 1015.8
03 21.06 З 3 н/о н/о +0.7 -1.1 88 -4 -4 1017.2 1015.8
06 21.06 СЗ 3 н/о н/о +0.7 -0.5 92 -4 -4 1017.1 1015.7
09 21.06 СЗ 3 н/о н/о +0.7 -0.9 89 -4 -4 1017.0 1015.6
12 21.06 СЗ 3 н/о н/о +1.1 -0.9 86 -3 -3 1017.2 1015.8 +0.4
15 21.06 СЗ 4 н/о н/о +1.7 -0.8 83 -3 -3 1017.3 1015.9
18 21.06 СЗ 4 н/о н/о +2.3 -1.7 75 -2 -2 1017.3 1015.9 -0.7 +2.5
21 21.06 СЗ 4 н/о н/о +2.4 -1.6 75 -2 -2 1017.6 1016.2
00 22.06 СЗ 4 н/о н/о +2.1 -1.4 78 -3 -3 1018.1 1016.7 +0.6 +2.9
03 22.06 СЗ 3 н/о н/о +1.9 -2.3 74 -2 -2 1018.2 1016.8
06 22.06 СЗ 3 н/о н/о +0.7 -2.4 80 -4 -4 1017.8 1016.4 +0.6 +2.9
09 22.06 З 4 н/о н/о -0.6 -2.7 86 -6 -6 1017.7 1016.3
12 22.06 З 4 н/о н/о -1.0 -2.7 88 -7 -7 1018.0 1016.6 -1.2 +2.9
15 22.06 З 4 н/о н/о +1.7 -2.1 76 -3 -3 1017.4 1016.0
18 22.06 З 5 н/о н/о +3.3 -3.0 63 -2 -2 1017.1 1015.7 -1.2 +3.3
21 22.06 З 6 н/о н/о +3.2 -1.3 72 -2 -2 1017.1 1015.7
00 23.06 З 6 н/о н/о +4.1 -1.9 65 -1 -1 1016.9 1015.5 -1.2 +4.2
03 23.06 З 5 н/о н/о +3.6 -2.1 66 -1 -1 1016.1 1014.7
06 23.06 З 5 н/о н/о +3.0 -1.3 73 -2 -2 1015.0 1013.6 -1.2 +4.2
09 23.06 ЮЗ 6 н/о н/о +2.9 -0.3 79 -3 -3 1013.5 1012.1
12 23.06 ЮЗ 6 н/о н/о +3.8 +1.2 83 -2 -2 1012.5 1011.1 +2.4 +4.2
15 23.06 З 8 н/о н/о +2.6 +0.5 86 -4 -4 1011.8 1010.4
18 23.06 З 8 н/о н/о +1.3 -0.3 89 -6 -6 1012.4 1011.0 +1.0 +4.3
21 23.06 СЗ 5 н/о н/о +1.7 0.0 88 -4 -4 1013.6 1012.2
00 24.06 З 7 н/о н/о +1.9 -0.7 83 -4 -4 1014.6 1013.2 +1.0 +4.1
03 24.06 З 6 н/о н/о +1.0 -0.4 90 -6 -6 1014.9 1013.5
06 24.06 З 7 н/о н/о +0.2 -0.4 96 -7 -7 1015.2 1013.8 +0.1 +4.3 18
09 24.06 З 6 н/о н/о +0.4 -0.6 93 -6 -6 1015.7 1014.3
12 24.06 З 6 н/о н/о +0.6 -0.5 92 -6 -6 1016.4 1015.0 +0.1 +4.3
15 24.06 З 6 н/о н/о +1.5 -0.1 89 -5 -5 1016.3 1014.9
18 24.06 З 7 н/о н/о +4.0 +1.3 83 -2 -2 1015.3 1013.9 +0.1 +4.1
21 24.06 З 6 н/о н/о +4.0 +1.0 81 -1 -1 1014.8 1013.4
00 25.06 ЮЗ 5 н/о н/о +4.7 +2.6 86 -0 -0 1014.2 1012.8 +0.2 +6.6
03 25.06 Ю 7 н/о н/о +4.2 +2.7 90 -2 -2 1012.5 1011.1 0.5
06 25.06 Ю 6 н/о {осадки} н/о +3.7 +2.6 93 -2 -2 1010.9 1009.5 +0.2 +6.6 3 21
09 25.06 Ю 7 н/о {осадки} н/о +3.0 +1.9 92 -3 -3 1011.2 1009.8 0.6
12 25.06 В 1 н/о {осадки} н/о +3.9 +2.2 89 +4 +4 1012.2 1010.8 +2.8 +6.6 0.8
15 25.06 З 2 н/о н/о +6.1 +3.2 82 +4 +4 1012.9 1011.5
18 25.06 ЮЗ 5 н/о н/о +6.2 +3.9 85 +2 +2 1013.7 1012.3 +2.5 +6.6
21 25.06 ЮЗ 8 н/о н/о +5.0 +3.7 91 -1 -1 1014.8 1013.4
00 26.06 ЮЗ 8 н/о {осадки} н/о +4.7 +3.6 93 -1 -1 1015.5 1014.1 +2.5 +6.7 0.2
03 26.06 З 8 н/о н/о +4.4 +3.2 92 -2 -2 1015.9 1014.5 0.2
06 26.06 ЮЗ 8 н/о {осадки} н/о +5.2 +3.7 90 -1 -1 1016.1 1014.7 +2.5 +6.7 0.2 5
09 26.06 ЮЗ 8 н/о н/о +4.9 +3.3 89 -1 -1 1016.8 1015.4
12 26.06 ЮЗ 8 н/о н/о +5.7 +3.7 87 0 0 1016.7 1015.3 +4.4 +6.7
15 26.06 ЮЗ 8 н/о н/о +7.7 +5.0 83 +3 +3 1017.0 1015.6
18 26.06 ЮЗ 8 н/о н/о +9.8 +6.5 80 +6 +6 1016.8 1015.4 +4.4 +10.2
21 26.06 ЮЗ 7 н/о н/о +10.2 +7.1 81 +6 +6 1016.6 1015.2
00 27.06 ЮЗ 8 н/о н/о +10.2 +7.4 83 +6 +6 1015.9 1014.5 +4.6 +10.7
03 27.06 Ю 6 н/о н/о +9.0 +6.2 83 +5 +5 1015.4 1014.0
06 27.06 ЮЗ 9 н/о н/о +7.8 +5.4 85 +3 +3 1014.4 1013.0 +4.6 +10.7 8
09 27.06 ЮЗ 7 н/о н/о +6.0 +4.3 89 +1 +1 1013.7 1012.3
12 27.06 ЮЗ 10 н/о н/о +6.8 +4.3 84 +1 +1 1013.1 1011.7 +5.4 +10.7
15 27.06 ЮЗ 8 н/о н/о +6.2 +3.9 85 +1 +1 1012.5 1011.1

 

Местоположение метеостанции Stefansson Island (Канада): широта 73.77 долгота -105.20 высота над уровнем моря 11 м.

В архиве по умолчанию представлена погода в Stefansson Island за последнюю неделю. Архивные данные за месяц целиком и за предыдущие месяцы, начиная с января 2011 года, Вы можете получить, выбрав интересующий диапазон дат из раскрывающегося списка и нажав кнопку "Ввод!".

Внимание! Время в таблицах - всемирное. Для получения местного времени необходимо прибавить поправку, которая в Stefansson Island равна -7 ч.

Смотрите также архив погоды в соседних городах и на ближайших метеорологических станциях:

Погода в Resolute Airport (Канада) (326 км)
Погода в Resolute Cs (Канада) (326 км)
Погода в Aulvik Ntl Park (Канада) (453 км)
Погода в Mould Bay Cs (Канада) (488 км)
Погода в Mould Bay, N. W. T. (Канада) (488 км)
Погода в Cambridge Bay Gsn (Канада) (519 км)
Погода в Cambridge Bay Arpt (Канада) (519 км)
Погода в Cape Peel West (Канада) (535 км)
Погода в Holman (Канада) (542 км)
Погода в Isachsen (aut) (Канада) (559 км)

Пояснения к столбцам:

Ветер - указаны скорость ветра в м/с - средняя за 10 мин, порывы в срок и между сроками (в фигурных скобках) и направление, откуда дует ветер: С - северный, СВ - северо-восточный, В - восточный, ЮВ - юго-восточный, Ю - южный, ЮЗ - юго-западный, З - западный, СЗ - северо-западный.
Видимость - горизонтальная дальность видимости в метрах или километрах. При видимости от 1 до 10 км при отсутствии осадков обычно наблюдается дымка, при ухудшении видимости до 1 км и менее - туман. В сухую погоду видимость может ухудшаться дымом, пылью или мглою.
Явления - указаны атмосферные явления, наблюдавшиеся в срок или в последний час перед сроком; фигурными скобками обозначены явления, наблюдавшиеся между сроками (за 1-3 часа до срока); квадратными скобками обозначены град или гололедные отложения с указанием их диаметра в мм.
Облачность - указаны через наклонную черту общая и нижняя облачность в баллах и высота нижней границы облаков в метрах; квадратными скобками обозначены формы облаков: Ci - перистые, Cs - перисто-слоистые, Cc - перисто-кучевые, Ac - высококучевые, As - высокослоистые, Sc - слоисто-кучевые, Ns - слоисто-дождевые, Cu - кучевые, Cb - кучево-дождевые. Подробнее классификацию облаков см. в Атласе облаков (PDF).
T - Температура воздуха - температура, измеренная на высоте 2 м над землей.
Td - Температура точки росы - температура, при понижении до которой содержащийся в воздухе водяной пар достигнет насыщения.
f - Относительная влажность воздуха - влажноcть воздуха, измеренная на высоте 2 м над землей.
Te - Эффективная температура - температура, которую ощущает одетый по сезону человек в тени. Характеристика душности погоды. При расчете учитывается влияние влажности воздуха и скорости ветра на теплоощущения человека.
Tes - Эффективная температура на солнце - температура, которую ощущает человек, с поправкой на солнечный нагрев. Характеристика знойности погоды. Зависит от высоты солнца над горизонтом, облачности и скорости ветра. Ночью, в пасмурную погоду, а также при ветре 12 м/с и более поправка равна нулю.
P - Атмосферное давление - приведенное к уровню моря атмосферное давление.
Po - Атмосферное давление - измеренное на уровне метеостанции атмосферное давление.
Tmin - Минимальная температура - минимум температуры воздуха на высоте 2 м над землей.
Tmax - Максимальная температура - максимум температуры воздуха на высоте 2 м над землей.
R - Количество осадков - Количество выпавших осадков за период времени, мм. При наведении курсора мыши на число - период времени, за который выпало указанное количество осадков.
R24 - Количество осадков - Количество выпавших осадков за 24 часа, мм.
S - Снежный покров - Высота снежного покрова, см. При наведении курсора мыши на число - состояние снежного покрова и степень покрытия местности в баллах.